EW6089 Weather Reports


time (UTC)temp
F
wind
direction
speed
knots
gust
knots
rain 1hr
in
rain 24hr
in
rain mn
in
humidity
%
barometer
mb
20260902234018 59 0.0 0.0 0.06 0.16 0.15 95 1004.9
20260902233017 59 0.0 0.0 0.06 0.15 0.14 95 1005.2
20260902232016 59 0.0 0.0 0.06 0.14 0.13 95 1005.1
20260902231017 59 0.0 0.0 0.06 0.13 0.12 94 1004.9
20260902230021 60 0.0 0.0 0.05 0.12 0.11 94 1004.8
20260902225041 60 0.0 0.9 0.05 0.11 0.10 94 1005.1
20260902224022 60 0.0 0.0 0.04 0.10 0.09 93 1004.9
20260902223036 60 0.0 0.9 0.04 0.09 0.08 93 1005.0
20260902222016 60 0.0 0.9 0.05 0.08 0.07 93 1004.8
20260902221050 60 0.0 0.9 0.05 0.07 0.06 92 1004.7
20260902220016 60 0.0 0.9 0.06 0.07 0.06 92 1004.7
20260902215016 61 0.0 0.9 0.05 0.06 0.05 91 1004.5
20260902214023 61 0.0 0.0 0.05 0.06 0.05 89 1004.6
20260902213016 62 0.0 0.9 0.04 0.05 0.04 86 1004.8
20260902212016 63 0.0 0.9 0.02 0.03 0.02 83 1004.8
20260902211016 65 0.0 0.9 0.01 0.02 0.01 77 1004.8
20260902210016 66 0.0 4.3 0.00 0.01 0.00 72 1004.9
20260902205036 66 0.0 2.6 0.00 0.01 0.00 68 1004.7
20260902204016 66 0.0 3.5 0.00 0.01 0.00 68 1004.6
20260902203016 67 45 1.7 7.0 0.00 0.01 0.00 67 1004.6
20260902202016 68 135 0.9 7.0 0.00 0.01 0.00 64 1004.8
20260902201016 69 0.0 0.9 0.00 0.01 0.00 63 1004.6
20260902200016 69 0.0 0.9 0.00 0.01 0.00 63 1004.7
20260902195016 68 0.0 1.7 0.00 0.01 0.00 65 1004.8
20260902194017 68 0.0 0.0 0.00 0.01 0.00 65 1004.9
20260902193016 68 0.0 0.0 0.00 0.01 0.00 65 1005.0
20260902191016 67 0.0 0.0 0.00 0.01 0.00 68 1005.2
20260902190023 67 0.0 0.9 0.00 0.01 0.00 69 1005.3
20260902185016 67 0.0 0.0 0.00 0.01 0.00 70 1005.4
20260902184015 67 0.0 0.0 0.00 0.01 0.00 70 1005.4
20260902183016 66 0.0 0.0 0.00 0.01 0.00 71 1005.7
20260902182156 66 0.0 0.0 0.00 0.01 0.00 75 1005.9
20260902181036 66 0.0 0.0 0.00 0.01 0.00 74 1005.9
20260902180016 65 0.0 0.9 0.00 0.01 0.00 74 1006.1
20260902175016 65 0.0 2.6 0.00 0.01 0.00 75 1006.1
20260902174015 65 0.0 2.6 0.00 0.01 0.00 77 1006.2
20260902173015 64 0.0 0.0 0.00 0.01 0.00 79 1006.3
20260902172016 64 0.0 0.0 0.00 0.01 0.00 78 1006.4
20260902171016 64 0.0 0.0 0.00 0.01 0.00 82 1006.5
20260902170016 63 0.0 0.0 0.00 0.01 0.00 82 1006.5
20260902165016 63 0.0 0.0 0.00 0.01 0.00 84 1006.5
20260902164016 62 0.0 0.0 0.00 0.01 0.00 88 1006.6
20260902163016 61 0.0 0.0 0.00 0.01 0.00 92 1006.7
20260902162015 60 0.0 0.0 0.00 0.01 0.00 95 1006.8
20260902161016 59 0.0 0.0 0.00 0.01 0.00 96 1006.8
20260902160020 59 0.0 0.0 0.00 0.01 0.00 97 1006.9
20260902155017 58 0.0 0.0 0.00 0.01 0.00 97 1007.1
20260902154017 58 0.0 0.0 0.00 0.01 0.00 97 1007.2
20260902153022 58 0.0 0.0 0.00 0.01 0.00 97 1007.4
20260902152017 57 0.0 0.0 0.00 0.01 0.00 97 1007.4
20260902151019 57 0.0 0.0 0.00 0.01 0.00 97 1007.5
20260902150016 57 0.0 0.0 0.00 0.01 0.00 97 1007.7
20260902145018 57 0.0 0.0 0.00 0.01 0.00 97 1007.9
20260902144017 56 0.0 0.0 0.00 0.01 0.00 97 1008.0
20260902143021 56 0.0 0.0 0.00 0.01 0.00 97 1008.1
20260902142017 56 0.0 0.0 0.00 0.01 0.00 97 1008.1
20260902141018 56 0.0 0.0 0.00 0.01 0.00 97 1008.2
20260902140017 56 0.0 0.0 0.00 0.01 0.00 97 1008.2
20260902135058 56 0.0 0.0 0.00 0.01 0.00 97 1008.2
20260902134017 56 0.0 0.0 0.00 0.01 0.00 97 1008.2
20260902133017 56 0.0 0.0 0.00 0.01 0.00 97 1008.2
20260902132017 56 0.0 0.0 0.00 0.01 0.00 97 1008.2
20260902131017 56 0.0 0.0 0.00 0.01 0.00 97 1008.3
20260902130017 56 0.0 0.0 0.00 0.01 0.00 97 1008.3
20260902125017 56 0.0 0.0 0.00 0.01 0.00 97 1008.4
20260902124017 56 0.0 0.0 0.00 0.01 0.00 97 1008.5
20260902123017 56 0.0 0.0 0.00 0.01 0.00 97 1008.5
20260902122018 56 0.0 0.0 0.00 0.01 0.00 96 1008.5
20260902121017 57 0.0 0.0 0.00 0.01 0.00 96 1008.6
20260902120017 57 0.0 0.0 0.00 0.01 0.00 96 1008.6
20260902115017 57 0.0 0.0 0.00 0.01 0.00 96 1008.8
20260902114017 57 0.0 0.0 0.00 0.01 0.00 96 1008.8
20260902113017 57 0.0 0.0 0.00 0.01 0.00 96 1008.9
20260902112017 57 0.0 0.0 0.00 0.01 0.00 96 1008.9
20260902111017 58 0.0 0.0 0.00 0.01 0.00 96 1009.0
20260902110037 58 0.0 0.0 0.00 0.01 0.00 96 1009.1
20260902105038 58 0.0 0.0 0.00 0.01 0.00 96 1009.1
20260902104017 58 0.0 0.0 0.00 0.01 0.00 96 1009.2
20260902103017 58 0.0 0.0 0.00 0.01 0.00 96 1009.2
20260902102017 58 0.0 0.0 0.00 0.01 0.00 96 1009.4
20260902101017 58 0.0 0.0 0.00 0.01 0.00 96 1009.4
20260902100037 58 0.0 0.0 0.00 0.01 0.00 96 1009.4
20260902095017 58 0.0 0.0 0.00 0.01 0.00 96 1009.5
20260902094017 58 0.0 0.0 0.00 0.01 0.00 96 1009.6
20260902093017 58 0.0 0.0 0.00 0.01 0.00 96 1009.6
20260902092057 58 0.0 0.0 0.00 0.01 0.00 96 1009.6
20260902091018 58 0.0 0.0 0.00 0.01 0.00 96 1009.5
20260902090017 58 0.0 0.0 0.00 0.01 0.00 96 1009.6
20260902085037 58 0.0 0.0 0.00 0.01 0.00 96 1009.6
20260902084102 58 0.0 0.0 0.00 0.01 0.00 96 1009.8
20260902083016 58 0.0 0.0 0.00 0.01 0.00 96 1009.9
20260902082017 58 0.0 0.0 0.00 0.01 0.00 96 1010.0
20260902081017 58 0.0 0.0 0.00 0.01 0.00 96 1010.1
20260902080017 59 0.0 0.0 0.00 0.01 0.00 96 1010.0
20260902075017 59 0.0 0.0 0.00 0.01 0.00 96 1010.2
20260902074017 59 0.0 0.0 0.00 0.01 0.00 96 1010.2
20260902073016 58 0.0 0.0 0.00 0.01 0.00 96 1010.2
20260902072017 58 0.0 0.0 0.00 0.01 0.00 96 1010.2
20260902071018 58 0.0 0.0 0.00 0.01 0.00 96 1010.3
20260902070037 58 0.0 0.0 0.00 0.01 0.01 96 1010.4
20260902065017 58 0.0 0.0 0.00 0.01 0.01 96 1010.5
20260902064017 58 0.0 0.0 0.00 0.01 0.01 96 1010.5
20260902063017 58 0.0 0.0 0.00 0.01 0.01 96 1010.5
20260902062036 58 0.0 0.0 0.00 0.01 0.01 96 1010.4
20260902061058 58 0.0 0.0 0.00 0.01 0.01 96 1010.5
20260902060016 58 0.0 0.0 0.00 0.01 0.01 95 1010.5
20260902055016 58 0.0 0.0 0.00 0.01 0.01 95 1010.5
20260902054018 58 0.0 0.0 0.00 0.01 0.01 95 1010.6
20260902053020 59 0.0 0.0 0.00 0.01 0.01 95 1010.6
20260902052019 59 0.0 0.0 0.00 0.01 0.01 94 1010.8
20260902051017 59 0.0 0.0 0.00 0.01 0.01 94 1010.7
20260902050017 59 0.0 0.0 0.00 0.01 0.01 94 1010.7
20260902045016 59 0.0 0.0 0.01 0.01 0.01 94 1010.7
20260902044042 60 0.0 0.0 0.01 0.01 0.01 93 1010.7
20260902043017 60 0.0 0.0 0.01 0.01 0.01 93 1010.8
20260902042017 60 0.0 0.0 0.01 0.01 0.01 92 1010.7
20260902041018 61 0.0 0.0 0.01 0.01 0.01 91 1010.8
20260902040017 61 0.0 0.0 0.01 0.01 0.01 89 1010.8
20260902035019 62 0.0 0.0 0.00 0.00 0.00 88 1011.0
20260902034018 63 0.0 0.0 0.00 0.00 0.00 85 1010.7
20260902033016 63 0.0 0.0 0.00 0.00 0.00 85 1010.5
20260902032041 63 0.0 0.0 0.00 0.00 0.00 84 1010.4
20260902031045 63 0.0 0.0 0.00 0.00 0.00 84 1010.3
20260902030039 63 0.0 0.0 0.00 0.00 0.00 83 1010.2
20260902025016 64 0.0 0.0 0.00 0.00 0.00 82 1010.1
20260902024023 64 0.0 0.0 0.00 0.00 0.00 82 1010.1
20260902023016 64 0.0 0.0 0.00 0.00 0.00 81 1010.1
20260902022016 64 0.0 0.0 0.00 0.00 0.00 81 1010.2
20260902021016 64 0.0 0.0 0.00 0.00 0.00 81 1010.2
20260902020016 64 0.0 0.0 0.00 0.00 0.00 80 1010.0
20260902015019 64 0.0 0.0 0.00 0.00 0.00 81 1010.1
20260902014017 64 0.0 0.0 0.00 0.00 0.00 80 1010.1
20260902013016 65 0.0 0.0 0.00 0.00 0.00 80 1010.1
20260902012016 65 0.0 0.0 0.00 0.00 0.00 79 1010.1
20260902011017 65 0.0 0.0 0.00 0.00 0.00 78 1010.0
20260902010016 65 0.0 0.0 0.00 0.00 0.00 78 1010.1
20260902005016 65 0.0 0.9 0.00 0.00 0.00 77 1010.0
20260902004016 65 0.0 0.0 0.00 0.00 0.00 78 1010.0
20260902003016 65 0.0 0.0 0.00 0.00 0.00 78 1010.1
20260902002016 65 0.0 0.0 0.00 0.00 0.00 77 1010.1
20260902001016 65 0.0 0.9 0.00 0.00 0.00 77 1010.1
20260902000016 65 0.0 0.0 0.00 0.00 0.00 77 1010.1
20260901235016 65 0.0 0.9 0.00 0.00 0.00 77 1010.1